Location: Lecco
(45.8566°N, 9.3977°E)
Time: 22:23:23
(UTC+02:00)

Vanguard 1 Rocket - Pass Details

Date: 23 August 2020
Orbit: 655 x 4221 km, 34.3° (Epoch: 30 September)

Event Time Altitude Azimuth Distance (km) Brightness Sun altitude
Exits shadow 02:27:34 27° 153° (SSE) 4,396 10.4 -31.1°
Drops below altitude 10° 02:37:43 10° 103° (ESE) 4,509 11.0 -30.5°
Sets 02:41:14 0° 91° (E) 5,057 11.5 -30.3°
